Location: Newark
(33.6439°N, 114.9881°W)
Time: 07:03:43
(UTC+00:00)

Tiros 1 - Pass Details

Date: 22 July 2019
Orbit: 631 x 664 km, 48.4° (Epoch: 24 August)

Event Time Altitude Azimuth Distance (km) Brightness Sun altitude
Rises 21:10:07 0° 289° (WNW) 2,990 10.8 67.1°
Reaches altitude 10° 21:13:22 10° 311° (NW) 2,080 10.0 66.5°
Maximum altitude 21:16:15 16° 348° (NNW) 1,736 9.5 66.0°
Drops below altitude 10° 21:19:09 10° 26° (NNE) 2,082 9.7 65.4°
Sets 21:22:25 0° 48° (NE) 2,993 10.3 64.8°
